TimeMST,TemperatureF,Dew PointF,Humidity,Sea Level PressureIn,VisibilityMPH,Wind Direction,Wind SpeedMPH,Gust SpeedMPH,PrecipitationIn,Events,Conditions,WindDirDegrees,DateUTC
12:55 AM,30.9,25.0,79,29.69,10.0,NW,6.9,-,N/A,,Scattered Clouds,320,2014-02-15 07:55:00
1:55 AM,35.1,24.1,64,29.70,10.0,West,6.9,-,N/A,,Mostly Cloudy,270,2014-02-15 08:55:00
2:55 AM,36.0,24.1,62,29.70,10.0,West,10.4,-,N/A,,Overcast,260,2014-02-15 09:55:00
3:55 AM,41.0,30.9,67,29.70,10.0,West,15.0,-,N/A,,Mostly Cloudy,280,2014-02-15 10:55:00
4:55 AM,41.0,30.9,67,29.72,10.0,West,12.7,-,N/A,,Clear,280,2014-02-15 11:55:00
5:55 AM,39.9,30.0,68,29.75,10.0,WNW,10.4,-,N/A,,Clear,290,2014-02-15 12:55:00
6:55 AM,36.0,28.0,73,29.79,10.0,WNW,6.9,-,N/A,,Clear,300,2014-02-15 13:55:00
7:55 AM,39.9,28.0,63,29.80,10.0,WNW,13.8,-,N/A,,Clear,300,2014-02-15 14:55:00
8:55 AM,44.1,26.1,49,29.82,10.0,NW,21.9,29.9,N/A,,Clear,310,2014-02-15 15:55:00
9:55 AM,48.0,25.0,41,29.83,10.0,NW,31.1,38.0,N/A,,Clear,310,2014-02-15 16:55:00
10:55 AM,48.0,25.0,41,29.88,10.0,NW,29.9,39.1,N/A,,Clear,320,2014-02-15 17:55:00
11:55 AM,48.0,26.1,42,29.89,10.0,NNW,25.3,38.0,N/A,,Clear,330,2014-02-15 18:55:00
12:55 PM,48.9,25.0,39,29.91,10.0,NW,27.6,38.0,N/A,,Clear,320,2014-02-15 19:55:00
1:55 PM,48.0,27.0,44,29.94,10.0,NNW,26.5,32.2,N/A,,Clear,330,2014-02-15 20:55:00
2:55 PM,48.0,26.1,42,29.98,10.0,NNW,19.6,26.5,N/A,,Clear,330,2014-02-15 21:55:00
3:55 PM,44.1,28.0,53,30.00,10.0,North,17.3,-,N/A,,Partly Cloudy,10,2014-02-15 22:55:00
4:55 PM,39.0,28.0,65,30.05,10.0,NNE,5.8,-,N/A,,Clear,30,2014-02-15 23:55:00
5:55 PM,30.9,25.0,79,30.08,10.0,East,4.6,-,N/A,,Clear,90,2014-02-16 00:55:00
6:55 PM,30.0,25.0,82,30.10,10.0,NNE,6.9,-,N/A,,Clear,20,2014-02-16 01:55:00
7:55 PM,28.0,24.1,85,30.11,10.0,East,8.1,-,N/A,,Clear,80,2014-02-16 02:55:00
8:55 PM,26.1,24.1,92,30.08,4.0,East,11.5,-,N/A,,Scattered Clouds,90,2014-02-16 03:55:00
9:04 PM,26.6,24.8,93,30.03,3.0,East,11.5,-,N/A,,Mostly Cloudy,80,2014-02-16 04:04:00
9:30 PM,26.6,24.8,93,30.05,5.0,East,8.1,-,N/A,,Overcast,100,2014-02-16 04:30:00
9:55 PM,26.1,24.1,92,30.09,4.0,ESE,6.9,-,N/A,,Overcast,110,2014-02-16 04:55:00
10:05 PM,26.6,24.8,93,30.04,3.0,East,9.2,-,N/A,,Overcast,100,2014-02-16 05:05:00
10:36 PM,24.8,24.8,100,30.03,1.8,East,11.5,-,N/A,,Overcast,100,2014-02-16 05:36:00
10:55 PM,24.1,23.0,96,30.07,0.8,East,10.4,-,N/A,,Mist,100,2014-02-16 05:55:00
11:20 PM,24.8,21.2,86,30.02,1.8,East,11.5,-,N/A,,Overcast,100,2014-02-16 06:20:00
11:26 PM,23.0,21.2,93,30.03,3.0,ESE,9.2,-,N/A,,Overcast,110,2014-02-16 06:26:00
11:55 PM,23.0,21.0,92,30.08,4.0,East,9.2,-,N/A,,Overcast,100,2014-02-16 06:55:00